STARLINK-1747

Last updated on Fri Nov 06 2020 00:02:03 GMT+0000 (Coordinated Universal Time)

1 46569U 20070AP 20310.83334491 .00072367 00000-0 78948-3 0 9994 2 46569 53.0010 292.9129 0001011 73.6686 37.7490 15.62741391 5277

Satellite not in orbit